Estación de El Refugio

Ultimos registro cada 15 minutos 86
Estación Fecha / Hora Temperatura Humedad Lluvia Velocidad Dirección Radiación Presion
86 El Refugio 30-08-2026 21:30 13,2 67 0 0 53 0 1040,4
85 El Refugio 30-08-2026 21:15 13,3 70 0 0 53 0 1040,2
84 El Refugio 30-08-2026 21:00 13,4 70 0 0 53 0 1040,1
83 El Refugio 30-08-2026 20:45 13,4 71 0 0 53 0 1039,8
82 El Refugio 30-08-2026 20:30 13,7 74 0 0 323 0 1039,8
81 El Refugio 30-08-2026 20:15 14 71 0 0 323 0 1039,5
80 El Refugio 30-08-2026 20:00 14,3 70 0 0 323 0 1039,1
79 El Refugio 30-08-2026 19:45 14,6 71 0 0 323 0 1039,1
78 El Refugio 30-08-2026 19:30 14,8 68 0 0 323 0 1038,7
77 El Refugio 30-08-2026 19:15 14,9 68 0 0 323 0 1038,7
76 El Refugio 30-08-2026 19:00 15,2 69 0 0 288 0 1038,1
75 El Refugio 30-08-2026 18:45 15,5 68 0 0 284 0 1037,7
74 El Refugio 30-08-2026 18:30 15,9 66 0 0 231 0 1037,5
73 El Refugio 30-08-2026 18:15 16,2 64 0 0 304 0 1037,4
72 El Refugio 30-08-2026 18:00 16,4 61 0 0 301 7 1037,1
71 El Refugio 30-08-2026 17:45 16,6 59 0 0 322 16 1037,1
70 El Refugio 30-08-2026 17:30 16,8 58 0 0 288 25 1037,1
69 El Refugio 30-08-2026 17:15 16,9 58 0 0 244 23 1037,1
68 El Refugio 30-08-2026 17:00 17,2 57 0 0 296 40 1037,1
67 El Refugio 30-08-2026 16:45 17,4 57 0 0 272 63 1037,1
66 El Refugio 30-08-2026 16:30 17,6 57 0 0 240 95 1037,1
65 El Refugio 30-08-2026 16:15 17,8 56 0 0,9 310 104 1037,1
64 El Refugio 30-08-2026 16:00 18 58 0 0 313 116 1037
63 El Refugio 30-08-2026 15:45 18,3 57 0 0 237 151 1036,8
62 El Refugio 30-08-2026 15:30 18,8 55 0 0 266 204 1036,9
61 El Refugio 30-08-2026 15:15 19 54 0 0 227 267 1036,8
60 El Refugio 30-08-2026 15:00 19,5 54 0 0 286 387 1037
59 El Refugio 30-08-2026 14:45 19,8 53 0 4,5 224 499 1036,9
58 El Refugio 30-08-2026 14:30 20 54 0 0 292 661 1036,8
57 El Refugio 30-08-2026 14:15 19,7 53 0 1,8 350 679 1036,8
56 El Refugio 30-08-2026 14:00 19,4 54 0 0 263 682 1036,9
55 El Refugio 30-08-2026 13:45 19,3 54 0 0 321 705 1036,7
54 El Refugio 30-08-2026 13:30 19,1 54 0 0 225 721 1036,9
53 El Refugio 30-08-2026 13:15 18,7 55 0 0 247 636 1037
52 El Refugio 30-08-2026 13:00 18,8 54 0 0 288 684 1037,2
51 El Refugio 30-08-2026 12:45 18,6 53 0 0,9 360 749 1037,5
50 El Refugio 30-08-2026 12:30 18,3 56 0 0 239 731 1037,5
49 El Refugio 30-08-2026 12:15 18,1 56 0 0 230 735 1037,6
48 El Refugio 30-08-2026 12:00 17,8 59 0 0 238 705 1037,7
47 El Refugio 30-08-2026 11:45 17,5 60 0 0 269 710 1037,8
46 El Refugio 30-08-2026 11:30 17,2 62 0 0 235 686 1037,7
45 El Refugio 30-08-2026 11:15 16,7 62 0 1,3 227 654 1037,8
44 El Refugio 30-08-2026 11:00 16,3 63 0 0 289 631 1037,8
43 El Refugio 30-08-2026 10:45 16 63 0 0 245 605 1037,8
42 El Refugio 30-08-2026 10:30 15,2 66 0 0 245 571 1037,7
41 El Refugio 30-08-2026 10:15 15,2 65 0 0 245 538 1037,7
40 El Refugio 30-08-2026 10:00 14,2 71 0 0 244 499 1037,7
39 El Refugio 30-08-2026 09:45 13,6 74 0 0 244 455 1037,8
38 El Refugio 30-08-2026 09:30 13,5 72 0 0 244 410 1037,7
37 El Refugio 30-08-2026 09:15 12,7 75 0 0 244 362 1037,6
36 El Refugio 30-08-2026 09:00 12,3 76 0 0 244 318 1037,4
35 El Refugio 30-08-2026 08:45 11,1 80 0 0 244 258 1037,3
34 El Refugio 30-08-2026 08:30 9,1 89 0 0 244 223 1037,2
33 El Refugio 30-08-2026 08:15 7,1 93 0 0 244 162 1037,1
32 El Refugio 30-08-2026 08:00 5,8 93 0 0 244 113 1036,9
31 El Refugio 30-08-2026 07:45 5 90 0 0 244 44 1036,8
30 El Refugio 30-08-2026 07:30 5,2 90 0 0 244 7 1036,7
29 El Refugio 30-08-2026 07:15 5,3 90 0 0 244 0 1036,5
28 El Refugio 30-08-2026 07:00 5,5 90 0 0 244 0 1036,3
27 El Refugio 30-08-2026 06:45 5,6 90 0 0 244 0 1035,9
26 El Refugio 30-08-2026 06:30 5,8 90 0 0 244 0 1035,8
25 El Refugio 30-08-2026 06:15 5,9 89 0 0 244 0 1035,7
24 El Refugio 30-08-2026 06:00 6,1 89 0 0 244 0 1035,5
23 El Refugio 30-08-2026 05:45 6,1 89 0 0 244 0 1035,6
22 El Refugio 30-08-2026 05:30 6,3 89 0 0 244 0 1035,5
21 El Refugio 30-08-2026 05:15 6,3 89 0 0 244 0 1035,4
20 El Refugio 30-08-2026 05:00 6,4 88 0 0 244 0 1035,3
19 El Refugio 30-08-2026 04:45 6,8 88 0 0 244 0 1035,1
18 El Refugio 30-08-2026 04:30 6,9 88 0 0 244 0 1034,9
17 El Refugio 30-08-2026 04:15 7,1 87 0 0 244 0 1034,9
16 El Refugio 30-08-2026 04:00 7,3 87 0 0 244 0 1034,7
15 El Refugio 30-08-2026 03:45 7,7 87 0 0 244 0 1034,8
14 El Refugio 30-08-2026 03:30 7,9 86 0 0 244 0 1034,8
13 El Refugio 30-08-2026 03:15 8,2 85 0 0 244 0 1035
12 El Refugio 30-08-2026 03:00 8,7 84 0 0 244 0 1035,1
11 El Refugio 30-08-2026 02:45 9,7 82 0 0 244 0 1035,2
10 El Refugio 30-08-2026 02:30 10,4 80 0 0 244 0 1035,3
9 El Refugio 30-08-2026 02:15 10,9 80 0 0 244 0 1035,3
8 El Refugio 30-08-2026 01:45 10,8 81 0 0 244 0 1035,5
7 El Refugio 30-08-2026 01:30 10,8 81 0 0 244 0 1035,5
6 El Refugio 30-08-2026 01:15 10,8 81 0 0 244 0 1035,7
5 El Refugio 30-08-2026 01:00 10,8 81 0 0 244 0 1035,9
4 El Refugio 30-08-2026 00:45 9,6 85 0 0 244 0 1036
3 El Refugio 30-08-2026 00:30 9,6 85 0 0 244 0 1036
2 El Refugio 30-08-2026 00:15 9,2 83 0 0 244 0 1036,1
1 El Refugio 30-08-2026 00:00 9,2 82 0 0 244 0 1036,3